Location: Unspecified
(0.0000°N, 0.0000°E)
Time: 11:21:09
(UTC+00:00)

SRMSAT - Pass Details

Date: 18 July 2019
Orbit: 848 x 865 km, 20.0° (Epoch: 07 December)

Event Time Altitude Azimuth Distance (km) Brightness Sun altitude
Rises 05:25:12 0° 299° (WNW) 3,391 ? -9.6°
Reaches altitude 10° 05:27:49 10° 304° (WNW) 2,455 ? -9.0°
Maximum altitude 05:33:35 56° 21° (NNE) 998 ? -7.6°
Drops below altitude 10° 05:39:22 10° 98° (E) 2,460 ? -6.3°
Sets 05:41:58 0° 103° (ESE) 3,398 ? -5.7°
